Location: San Antonio
(29.4240°N, 98.4930°W)
Time: 14:35:09
(UTC-05:00)

Tiangong - Visible Passes

Search period start: 18 May 2026 00:00
Search period end: 28 May 2026 00:00
Orbit: 381 x 391 km, 41.5° (Epoch: 18 May)

Date Brightness Start Highest point End Pass type
(mag) Time Alt. Az. Time Alt. Az. Time Alt. Az.
18 May -1.3 05:20:38 33° S 05:20:38 33° S 05:22:59 10° SSE visible
18 May -1.9 21:47:40 10° WSW 21:50:51 69° NNW 21:52:35 24° NE visible
19 May -2.0 20:48:26 10° SW 20:51:33 54° SE 20:54:41 10° ENE visible
19 May 0.4 22:26:02 10° WNW 22:28:34 21° NNW 22:29:46 17° N visible
20 May -0.4 21:26:08 10° W 21:29:05 34° NNW 21:32:02 10° NE visible
20 May 1.3 23:05:24 10° NNW 23:06:23 11° NNW 23:06:23 11° NNW visible
21 May 0.9 22:05:02 10° NW 22:06:56 15° NNW 22:08:51 10° NNE visible
22 May 0.5 21:04:51 10° WNW 21:07:20 21° NNW 21:09:50 10° NNE visible
23 May 1.0 21:44:12 10° NNW 21:45:17 11° N 21:46:24 10° N visible
25 May 1.1 22:59:46 10° NNW 23:00:39 12° N 23:00:39 12° N visible
26 May 0.9 22:00:51 10° N 22:01:41 11° N 22:02:32 10° NNE visible
27 May 0.4 22:37:15 10° NNW 22:39:11 18° N 22:39:11 18° N visible
